TimeEDT,TemperatureF,Dew PointF,Humidity,Sea Level PressureIn,VisibilityMPH,Wind Direction,Wind SpeedMPH,Gust SpeedMPH,PrecipitationIn,Events,Conditions,WindDirDegrees,DateUTC
12:52 AM,53.1,27.0,37,30.26,10.0,South,3.5,-,N/A,,Overcast,180,2013-04-30 04:52:00
1:52 AM,51.1,32.0,48,30.25,10.0,South,3.5,-,N/A,,Overcast,180,2013-04-30 05:52:00
2:52 AM,50.0,35.1,57,30.25,10.0,Calm,Calm,-,N/A,,Overcast,0,2013-04-30 06:52:00
3:52 AM,51.1,35.1,54,30.26,10.0,Calm,Calm,-,N/A,,Overcast,0,2013-04-30 07:52:00
4:52 AM,50.0,36.0,59,30.27,10.0,Calm,Calm,-,N/A,,Overcast,0,2013-04-30 08:52:00
5:52 AM,48.9,37.0,64,30.28,10.0,Calm,Calm,-,N/A,,Overcast,0,2013-04-30 09:52:00
6:52 AM,50.0,37.0,61,30.30,10.0,Calm,Calm,-,N/A,,Overcast,0,2013-04-30 10:52:00
7:52 AM,53.1,37.0,55,30.31,10.0,Calm,Calm,-,N/A,,Overcast,0,2013-04-30 11:52:00
8:52 AM,55.9,30.9,39,30.32,10.0,WSW,3.5,-,N/A,,Mostly Cloudy,240,2013-04-30 12:52:00
9:52 AM,59.0,18.0,20,30.32,10.0,SSW,4.6,-,N/A,,Overcast,200,2013-04-30 13:52:00
10:52 AM,62.1,15.1,16,30.32,10.0,Variable,5.8,-,N/A,,Overcast,0,2013-04-30 14:52:00
11:52 AM,64.9,19.9,18,30.30,10.0,South,5.8,-,N/A,,Clear,190,2013-04-30 15:52:00
12:52 PM,66.0,19.9,17,30.29,10.0,Variable,3.5,-,N/A,,Clear,0,2013-04-30 16:52:00
1:52 PM,70.0,19.9,15,30.28,10.0,Variable,5.8,-,N/A,,Clear,0,2013-04-30 17:52:00
3:52 PM,70.0,19.9,15,30.26,10.0,SSE,8.1,-,N/A,,Clear,150,2013-04-30 19:52:00
4:52 PM,71.1,21.0,15,30.26,10.0,ESE,4.6,-,N/A,,Clear,110,2013-04-30 20:52:00
5:52 PM,71.1,21.9,16,30.26,10.0,SW,5.8,-,N/A,,Clear,230,2013-04-30 21:52:00
6:52 PM,69.1,23.0,18,30.27,10.0,SSW,6.9,-,N/A,,Clear,200,2013-04-30 22:52:00
7:52 PM,64.9,24.1,21,30.29,10.0,ESE,11.5,-,N/A,,Clear,120,2013-04-30 23:52:00
8:52 PM,61.0,21.9,22,30.31,10.0,SE,4.6,-,N/A,,Clear,140,2013-05-01 00:52:00
9:52 PM,55.9,26.1,32,30.34,10.0,SSW,4.6,-,N/A,,Clear,200,2013-05-01 01:52:00
10:52 PM,51.1,30.0,44,30.35,10.0,Calm,Calm,-,N/A,,Clear,0,2013-05-01 02:52:00
11:52 PM,43.0,30.9,62,30.35,10.0,Calm,Calm,-,N/A,,Clear,0,2013-05-01 03:52:00